When you browse on this site, cookies collect data to enhance your experience and personalize the content and advertising you see.
Visit our Privacy Policy to learn more. By continuing to use the site, you agree to this use of cookies and data.
  • In Österreich
  • Länderverzeichnis
  • Für 7 Tage
  • Wassertemperatur
  • Satellitenkarten
  • Wetterkarte
  • News
  • Widgets
  • user-avatar
    Anmelden

    Stündliche Wetter Cegielsko

    Heute, 24 April, Mittwoch

    Zeit Temperatur Niederschläge Wind Luftdruck Luftfeuchtigkeit
    00:00 +12°C° 0 mm 5 m/S 751 mmHg 72%
    01:00 +10°C° 0 mm 4 m/S 751 mmHg 82%
    02:00 +10°C° 0 mm 4 m/S 751 mmHg 81%
    03:00 +9°C° 0 mm 5 m/S 750 mmHg 81%
    04:00 +9°C° 0 mm 5 m/S 750 mmHg 80%
    05:00 +10°C° 0 mm 6 m/S 750 mmHg 78%
    06:00 +11°C° 0 mm 6 m/S 751 mmHg 75%
    07:00 +13°C° 0 mm 6 m/S 750 mmHg 73%
    08:00 +14°C° 0 mm 7 m/S 750 mmHg 70%
    09:00 +15°C° 0 mm 7 m/S 751 mmHg 66%
    10:00 +16°C° 0 mm 7 m/S 751 mmHg 63%
    11:00 +17°C° 0 mm 7 m/S 751 mmHg 61%
    12:00 +18°C° 0 mm 7 m/S 751 mmHg 60%
    13:00 +20°C° 0 mm 7 m/S 751 mmHg 58%
    14:00 +20°C° 0 mm 7 m/S 750 mmHg 58%
    15:00 +21°C° 0 mm 7 m/S 750 mmHg 57%
    16:00 +21°C° 0 mm 6 m/S 750 mmHg 57%
    17:00 +20°C° 0 mm 6 m/S 750 mmHg 62%
    18:00 +19°C° 0 mm 5 m/S 750 mmHg 67%
    19:00 +17°C° 0 mm 5 m/S 750 mmHg 73%
    20:00 +16°C° 0 mm 5 m/S 750 mmHg 73%
    21:00 +16°C° 0 mm 5 m/S 750 mmHg 74%
    22:00 +15°C° 0 mm 5 m/S 750 mmHg 74%
    23:00 +15°C° 0 mm 5 m/S 750 mmHg 76%

    Morgen, 25 April, Donnerstag

    Zeit Temperatur Niederschläge Wind Luftdruck Luftfeuchtigkeit
    00:00 +14°C° 0 mm 5 m/S 750 mmHg 78%
    01:00 +14°C° 0 mm 5 m/S 750 mmHg 80%
    02:00 +13°C° 0 mm 4 m/S 750 mmHg 82%
    03:00 +13°C° 0 mm 4 m/S 750 mmHg 85%
    04:00 +12°C° 0 mm 3 m/S 750 mmHg 88%
    05:00 +13°C° 0 mm 3 m/S 751 mmHg 86%
    06:00 +14°C° 0 mm 3 m/S 751 mmHg 84%
    07:00 +14°C° 0 mm 3 m/S 751 mmHg 82%
    08:00 +17°C° 0 mm 3 m/S 751 mmHg 77%
    09:00 +19°C° 0 mm 3 m/S 752 mmHg 71%
    10:00 +20°C° 0 mm 2 m/S 752 mmHg 66%
    11:00 +21°C° 0 mm 2 m/S 752 mmHg 62%
    12:00 +23°C° 0 mm 2 m/S 752 mmHg 58%
    13:00 +24°C° 0 mm 2 m/S 752 mmHg 55%
    14:00 +24°C° 0 mm 1 m/S 752 mmHg 52%
    15:00 +25°C° 0 mm 1 m/S 752 mmHg 49%
    16:00 +25°C° 0 mm 1 m/S 752 mmHg 46%
    17:00 +24°C° 0 mm 1 m/S 752 mmHg 54%
    18:00 +21°C° 0 mm 2 m/S 752 mmHg 63%
    19:00 +19°C° 0 mm 2 m/S 752 mmHg 71%
    20:00 +18°C° 0 mm 2 m/S 752 mmHg 76%
    21:00 +17°C° 0 mm 2 m/S 752 mmHg 80%
    22:00 +16°C° 0 mm 2 m/S 752 mmHg 85%
    23:00 +16°C° 0 mm 2 m/S 752 mmHg 87%

    übermorgen, 26 April, Freitag

    Zeit Temperatur Niederschläge Wind Luftdruck Luftfeuchtigkeit
    00:00 +15°C° 0 mm 2 m/S 751 mmHg 88%
    01:00 +15°C° 0 mm 2 m/S 751 mmHg 90%
    02:00 +15°C° 0 mm 2 m/S 751 mmHg 91%
    03:00 +13°C° 0 mm 3 m/S 750 mmHg 92%
    04:00 +13°C° 0 mm 3 m/S 750 mmHg 93%
    05:00 +14°C° 0 mm 3 m/S 749 mmHg 88%
    06:00 +14°C° 0 mm 3 m/S 749 mmHg 83%
    07:00 +16°C° 0 mm 3 m/S 749 mmHg 78%
    08:00 +18°C° 0 mm 3 m/S 749 mmHg 71%
    09:00 +20°C° 0 mm 3 m/S 749 mmHg 63%
    10:00 +22°C° 0 mm 3 m/S 748 mmHg 56%
    11:00 +24°C° 0 mm 3 m/S 748 mmHg 53%
    12:00 +25°C° 0 mm 3 m/S 748 mmHg 50%
    13:00 +26°C° 0 mm 2 m/S 748 mmHg 46%
    14:00 +26°C° 0 mm 2 m/S 747 mmHg 45%
    15:00 +26°C° 0 mm 1 m/S 747 mmHg 44%
    16:00 +24°C° 0 mm 0 m/S 747 mmHg 42%
    17:00 +25°C° 0 mm 1 m/S 747 mmHg 49%
    18:00 +23°C° 0 mm 2 m/S 747 mmHg 57%
    19:00 +20°C° 0 mm 3 m/S 747 mmHg 64%
    20:00 +19°C° 0.7 mm 4 m/S 748 mmHg 73%
    21:00 +16°C° 0.7 mm 5 m/S 748 mmHg 82%
    22:00 +14°C° 0.7 mm 6 m/S 748 mmHg 91%
    23:00 +14°C° 0.5 mm 6 m/S 749 mmHg 91%

    27 April, Samstag

    Zeit Temperatur Niederschläge Wind Luftdruck Luftfeuchtigkeit
    00:00 +13°C° 0.5 mm 5 m/S 749 mmHg 90%
    01:00 +12°C° 0.5 mm 5 m/S 749 mmHg 90%
    02:00 +12°C° 0.2 mm 5 m/S 750 mmHg 90%
    03:00 +10°C° 0.2 mm 6 m/S 750 mmHg 90%
    04:00 +10°C° 0.2 mm 6 m/S 750 mmHg 90%
    05:00 +9°C° 0.4 mm 6 m/S 750 mmHg 90%
    06:00 +9°C° 0.4 mm 6 m/S 751 mmHg 89%
    07:00 +9°C° 0.4 mm 6 m/S 751 mmHg 89%
    08:00 +9°C° 0.1 mm 6 m/S 751 mmHg 86%
    09:00 +9°C° 0.1 mm 5 m/S 751 mmHg 82%
    10:00 +10°C° 0.1 mm 5 m/S 752 mmHg 79%
    11:00 +12°C° 0 mm 5 m/S 752 mmHg 71%
    12:00 +14°C° 0 mm 5 m/S 752 mmHg 63%
    13:00 +15°C° 0 mm 5 m/S 751 mmHg 54%
    14:00 +16°C° 0 mm 5 m/S 751 mmHg 53%
    15:00 +17°C° 0 mm 4 m/S 751 mmHg 51%
    16:00 +17°C° 0 mm 4 m/S 751 mmHg 49%
    17:00 +16°C° 0 mm 3 m/S 751 mmHg 55%
    18:00 +15°C° 0 mm 2 m/S 751 mmHg 60%
    19:00 +14°C° 0 mm 1 m/S 751 mmHg 65%
    20:00 +13°C° 0 mm 1 m/S 751 mmHg 66%
    21:00 +13°C° 0 mm 1 m/S 751 mmHg 67%
    22:00 +11°C° 0 mm 0 m/S 752 mmHg 68%
    23:00 +11°C° 0 mm 0 m/S 752 mmHg 71%

    28 April, Sonntag

    Zeit Temperatur Niederschläge Wind Luftdruck Luftfeuchtigkeit
    00:00 +12°C° 0 mm 1 m/S 752 mmHg 74%
    01:00 +11°C° 0 mm 1 m/S 752 mmHg 77%
    02:00 +11°C° 0 mm 1 m/S 752 mmHg 81%
    03:00 +9°C° 0 mm 2 m/S 752 mmHg 86%
    04:00 +9°C° 0 mm 2 m/S 753 mmHg 90%
    05:00 +10°C° 0 mm 3 m/S 753 mmHg 89%
    06:00 +10°C° 0 mm 3 m/S 753 mmHg 87%
    07:00 +11°C° 0 mm 4 m/S 753 mmHg 86%
    08:00 +12°C° 0 mm 4 m/S 754 mmHg 81%
    09:00 +13°C° 0 mm 4 m/S 754 mmHg 77%
    10:00 +13°C° 0 mm 4 m/S 754 mmHg 73%
    11:00 +14°C° 0 mm 4 m/S 754 mmHg 70%
    12:00 +15°C° 0 mm 4 m/S 754 mmHg 67%
    13:00 +17°C° 0 mm 4 m/S 754 mmHg 64%
    14:00 +17°C° 0.1 mm 4 m/S 754 mmHg 62%
    15:00 +17°C° 0.1 mm 4 m/S 754 mmHg 60%
    16:00 +18°C° 0.1 mm 4 m/S 754 mmHg 58%
    17:00 +17°C° 0 mm 4 m/S 754 mmHg 61%
    18:00 +16°C° 0 mm 3 m/S 755 mmHg 64%
    19:00 +14°C° 0 mm 3 m/S 755 mmHg 67%
    20:00 +13°C° 0 mm 3 m/S 755 mmHg 69%
    21:00 +12°C° 0 mm 3 m/S 755 mmHg 71%
    22:00 +11°C° 0 mm 3 m/S 756 mmHg 73%
    23:00 +11°C° 0 mm 3 m/S 756 mmHg 74%

    29 April, Montag

    Zeit Temperatur Niederschläge Wind Luftdruck Luftfeuchtigkeit
    00:00 +10°C° 0 mm 3 m/S 756 mmHg 75%
    01:00 +10°C° 0 mm 3 m/S 756 mmHg 76%
    02:00 +10°C° 0 mm 3 m/S 756 mmHg 79%
    03:00 +9°C° 0 mm 3 m/S 756 mmHg 82%
    04:00 +9°C° 0 mm 3 m/S 755 mmHg 85%
    05:00 +9°C° 0 mm 3 m/S 755 mmHg 85%
    06:00 +8°C° 0 mm 4 m/S 755 mmHg 85%
    07:00 +10°C° 0 mm 4 m/S 755 mmHg 85%
    08:00 +10°C° 0.1 mm 4 m/S 755 mmHg 84%
    09:00 +11°C° 0.1 mm 4 m/S 755 mmHg 82%
    10:00 +12°C° 0.1 mm 4 m/S 755 mmHg 80%
    11:00 +12°C° 0.1 mm 4 m/S 755 mmHg 82%
    12:00 +12°C° 0.1 mm 4 m/S 755 mmHg 83%
    13:00 +12°C° 0.1 mm 4 m/S 755 mmHg 84%
    14:00 +12°C° 0.7 mm 4 m/S 755 mmHg 87%
    15:00 +12°C° 0.7 mm 4 m/S 754 mmHg 90%
    16:00 +12°C° 0.7 mm 3 m/S 754 mmHg 93%
    17:00 +12°C° 1.5 mm 3 m/S 754 mmHg 93%
    18:00 +12°C° 1.5 mm 3 m/S 755 mmHg 93%
    19:00 +12°C° 1.5 mm 3 m/S 755 mmHg 93%
    20:00 +12°C° 0 mm 3 m/S 755 mmHg 93%
    21:00 +11°C° 0 mm 3 m/S 755 mmHg 94%
    22:00 +10°C° 0 mm 3 m/S 756 mmHg 94%
    23:00 +10°C° 0 mm 3 m/S 756 mmHg 94%
    Mehr zeigen